User: anonymous   Login
Location: Bittelbronn
(48.4454°N, 8.5870°E)
Time: 20:31:16
(UTC+00:00)
Language:

Cosmos 2297 Rocket - Orbit

View from above orbital plane
View from above orbital plane
View from above satellite
View from above satellite

Ground track
Ground track

The orbit data is extracted from the following two-line orbital elements,

1 23405U 94077B   24197.39799875  .00000029  00000-0  39613-4 0  9998
2 23405  70.9819 179.4613 0003605 318.5500  41.5349 14.15404241531008
Epoch (UTC): 15 July 2024 09:33:07
Eccentricity: 0.0003605
inclination: 70.9819°
perigee height: 838 km
apogee height: 843 km
right ascension of ascending node: 179.4613°
argument of perigee: 318.5500°
revolutions per day: 14.15404241
mean anomaly at epoch: 41.5349°
orbit number at epoch: 53100

The dashed part of the orbit path shows where the satellite is in the earth's shadow,  

DLR